Home   Weather   Visalia   Past weeks

Flag for USA Past Weather in Visalia, California, USA — Yesterday and Last 2 Weeks

Now
70 °F

Sunny.


Feels Like: 75 °F
Forecast: 67 / 94 °F
Wind: 3 mph from Northwest

Location: Visalia Municipal

Current Time: Aug 20, 2017 at 8:30:32 am

Latest Report: Aug 20, 2017 at 7:56 am


Visibility: 10 mi

Pressure: 29.86 "Hg

Humidity: 66%

Dew Point: 58 °F

Location of VisaliaLocation

Past Weather in Visalia — Graph

°F

Visalia Temperature Yesterday

Maximum temperature yesterday: 98 °F (at 3:56 pm)
Minimum temperature yesterday: 69 °F (at 5:56 am)
Average temperature yesterday: 83 °F

High & Low Weather Summary for the Past Weeks

 TemperatureHumidityPressure
High100 °F (Aug 11, 4:56 pm)91% (Aug 12, 6:56 am)29.99 "Hg (Aug 12, 6:56 am)
Low62 °F (Aug 16, 5:56 am)15% (Aug 13, 4:56 pm)29.72 "Hg (Aug 14, 6:56 pm)
Average81 °F53%29.86 "Hg
* Reported Aug 5 7:56 am — Aug 20 6:56 am, Visalia. Weather by CustomWeather, © 2017

Note: Actual official high and low records may vary slightly from our data, if they occured in-between our weather recording intervals... More about our weather records

Advertising

Visalia Weather History for the Previous 24 Hours

Scroll right to see more
 ConditionsComfort  
Time TempWeatherWind HumidityBarometerVisibility
6:56 am
Sun, Aug 20
67 °FSunny.3 mph73%29.85 "Hg10 mi
4:56 am69 °FClear.3 mph76%29.82 "Hg10 mi
3:56 am71 °FClear.5 mph73%29.81 "Hg10 mi
2:56 am71 °FClear.5 mph73%29.81 "Hg10 mi
1:56 am73 °FClear.5 mph76%29.81 "Hg9 mi
12:56 am76 °FClear.No wind64%29.81 "Hg10 mi
11:56 pm
Sat, Aug 19
77 °FClear.3 mph64%29.81 "Hg10 mi
10:56 pm81 °FClear.8 mph54%29.80 "Hg10 mi
9:56 pm85 °FClear.9 mph50%29.79 "Hg10 mi
8:56 pm87 °FClear.10 mph50%29.77 "Hg10 mi
7:56 pm91 °FClear.8 mph45%29.76 "Hg10 mi
6:56 pm93 °FSunny.7 mph42%29.75 "Hg10 mi
5:56 pm98 °FSunny.6 mph31%29.74 "Hg10 mi
4:56 pm97 °FSunny.8 mph35%29.75 "Hg10 mi
3:56 pm98 °FSunny.8 mph34%29.77 "Hg10 mi
1:56 pm95 °FSunny.5 mph36%29.82 "Hg10 mi
12:56 pm94 °FSunny.5 mph37%29.84 "Hg10 mi
11:56 am90 °FSunny.No wind43%29.86 "Hg9 mi
10:56 am86 °FSunny.3 mph53%29.88 "Hg9 mi
9:56 am82 °FSunny.5 mph60%29.89 "Hg8 mi
8:56 am77 °FSunny.3 mph69%29.89 "Hg8 mi
Weather by CustomWeather, © 2017

See weather overviewHow to use our weather pages